Location: Altmatt
(47.1333°N, 8.7000°E)
Time: 18:53:46
(UTC+00:00)

PSLV R/B - Pass Details

Date: 13 July 2020
Orbit: 598 x 701 km, 97.9° (Epoch: 12 August)

Event Time Altitude Azimuth Distance (km) Brightness Sun altitude
Rises 23:47:24 0° 15° (NNE) 2,874 8.5 -21.1°
Reaches altitude 10° 23:49:34 10° 17° (NNE) 1,975 7.3 -21.1°
Maximum altitude 23:53:51 74° 103° (ESE) 650 3.5 -21.0°
Enters shadow 23:54:38 57° 166° (SSE) 736 3.5 -21.0°
